Location: Peralejo
(40.5415°N, 4.1259°W)
Time: 09:42:55
(UTC+00:00)

CENTAUR R/B - Pass Details

Date: 18 April 2024
Orbit: 670 x 1515 km, 63.4° (Epoch: 19 May)

Event Time Altitude Azimuth Distance (km) Brightness Sun altitude
Rises 21:31:11 0° 328° (NNW) 4,139 7.0 -25.8°
Reaches altitude 10° 21:34:05 10° 336° (NNW) 3,287 6.1 -26.2°
Maximum altitude 21:41:39 38° 43° (NE) 2,035 4.1 -27.2°
Enters shadow 21:44:53 30° 82° (E) 2,384 4.2 -27.6°
